Wind_Speed
6 7 7 7 7 6 6 6 6 6 5 6 8 8 9 10 10 8 8 7 7 7 6 6 6 6 5 5 4 4 5 4 4 4 4 4 3 3 2 2 2 2 1
6 6 6 6 6 6 6 6 6 5 5 6 7 8 8 8 8 8 7 7 6 6 5 5 5 5 4 4 4 4 4 4 5 5 4 4 3 3 3 2 2 2 1
5 6 6 6 6 6 6 6 6 6 7 7 7 7 6 6 6 6 6 6 5 5 5 5 4 4 4 3 3 3 4 4 4 4 4 4 3 2 2 3 3 2 2
6 6 6 6 6 6 6 6 6 6 6 6 6 6 5 5 4 5 5 4 4 4 4 4 3 3 3 3 3 3 4 4 4 4 4 4 3 3 2 3 3 3 3
6 5 5 6 6 5 6 6 6 5 5 5 5 5 4 4 4 4 4 4 4 4 4 3 3 2 2 3 3 3 3 3 3 4 4 3 3 3 3 3 3 3 3
5 5 5 5 5 5 5 5 5 5 5 4 4 4 4 3 3 3 3 3 3 3 3 3 2 2 2 2 3 3 3 3 3 3 3 3 3 4 4 4 4 3 3
5 4 4 5 5 5 5 5 5 4 4 4 3 3 3 3 3 2 3 3 2 3 2 2 2 2 2 2 2 2 2 2 3 3 3 3 4 4 4 4 4 3 3
4 4 4 4 4 4 4 4 4 4 4 4 3 3 3 3 3 2 2 2 2 2 2 2 2 2 2 2 1 1 2 2 3 3 3 3 3 3 4 4 3 3 3
5 5 5 4 4 4 4 4 4 4 4 4 4 4 3 3 3 2 2 2 2 2 3 2 2 2 1 1 1 2 2 2 2 3 3 3 3 3 3 4 3 3 3
5 5 5 4 4 4 4 4 4 4 4 4 4 4 3 3 3 3 3 3 2 2 2 1 1 1 1 1 1 1 2 2 2 2 2 2 4 4 4 4 3 3 3
5 5 5 4 3 4 4 4 3 4 3 3 4 4 4 3 2 3 3 3 2 2 1 0 0 0 1 1 0 1 1 2 2 2 3 3 3 4 3 3 3 3 3
5 5 4 4 4 4 4 3 3 3 3 3 4 4 3 3 3 3 3 3 3 2 2 1 0 1 1 0 1 1 1 2 2 2 3 3 3 3 3 3 3 2 3
6 5 5 5 4 4 4 3 3 3 3 2 3 3 3 3 3 3 4 4 3 3 3 3 2 1 1 0 0 1 1 2 2 2 3 3 3 3 3 3 3 2 2
6 5 5 5 4 4 4 3 3 3 2 2 3 3 3 3 3 3 3 3 3 3 3 3 3 2 1 1 1 1 2 2 2 2 3 3 3 3 3 3 3 3 3
6 5 5 5 4 4 4 3 3 3 2 2 2 2 3 3 3 3 3 3 3 3 4 4 4 3 2 2 2 2 2 2 2 2 3 3 4 4 4 4 4 4 4
5 5 5 5 4 4 4 4 4 3 2 2 2 2 3 3 3 4 3 3 3 4 4 4 4 3 3 2 2 3 3 3 3 3 3 4 4 5 5 4 4 5 5
5 5 5 5 4 4 4 4 3 3 2 2 3 3 3 3 4 4 5 5 4 4 5 5 4 3 3 3 4 3 3 3 3 4 4 4 5 5 5 5 5 5 6
4 4 4 4 4 4 3 3 3 3 3 3 3 3 4 4 4 4 5 6 6 6 6 6 5 5 5 5 5 4 4 4 4 4 4 5 5 5 5 5 6 6 6
4 4 4 4 4 4 4 3 3 4 4 4 4 4 5 5 5 5 5 6 6 6 6 6 7 7 7 6 6 6 5 5 6 6 6 6 6 6 6 7 7 7 8
5 4 4 4 5 5 5 4 4 5 5 5 6 6 6 6 6 6 6 6 7 7 7 7 7 7 8 7 7 7 7 7 7 7 7 7 8 8 7 8 9 10 10
6 5 4 5 5 5 5 5 5 5 6 6 6 6 7 7 7 7 7 7 8 8 8 8 8 8 8 9 9 9 9 9 9 9 9 9 9 9 9 9 10 11 11
6 6 6 6 5 5 5 6 6 6 6 7 7 7 8 8 8 8 9 8 9 9 9 9 9 9 10 11 11 11 10 10 10 10 10 10 10 11 11 11 11 12 12
7 7 7 7 7 7 7 7 7 7 8 8 8 9 9 9 9 10 10 9 9 9 8 9 9 10 11 10 10 11 11 11 11 11 11 11 11 11 12 12 13 14 13
8 8 8 8 8 9 9 9 9 9 9 9 9 10 10 10 10 10 10 9 9 9 9 10 10 10 10 10 11 11 11 11 11 11 12 13 13 13 13 14 14 15 16
8 9 9 9 9 10 10 10 10 10 10 10 11 11 11 11 11 11 10 10 10 10 10 10 10 11 11 11 12 12 12 12 12 13 13 14 15 15 15 15 15 15 16
9 9 9 10 10 10 11 11 12 12 12 12 12 13 13 13 12 12 13 12 11 11 11 11 11 11 11 12 12 13 12 12 13 14 14 15 16 16 16 16 17 17 17
Wind_Direction
60 63 71 86 95 96 99 107 109 109 114 121 130 129 123 125 128 131 128 123 119 120 120 115 114 110 105 95 93 93 86 77 62 57 48 53 51 49 45 44 55 57 77
59 69 69 79 88 84 87 100 108 111 121 127 132 133 129 125 128 130 127 124 126 122 119 116 112 107 101 94 94 93 83 74 64 57 54 55 50 49 46 44 53 37 92
59 66 71 72 80 83 86 93 97 109 120 124 130 133 129 124 124 126 130 129 126 124 119 114 110 104 96 92 94 94 80 74 68 58 53 50 45 45 46 50 44 53 80
54 58 67 74 80 80 84 86 89 101 111 120 128 133 131 129 128 128 129 128 126 121 113 106 105 103 89 90 92 93 86 77 68 56 46 42 39 44 49 51 51 54 65
51 57 68 75 82 81 80 81 82 92 102 114 127 129 127 122 119 123 122 122 121 119 110 100 87 91 100 94 92 92 83 72 65 49 46 45 48 50 49 47 47 48 62
45 53 55 65 73 77 74 74 79 87 93 101 115 122 117 106 105 117 117 118 124 121 107 95 82 81 90 88 88 82 73 62 52 39 32 31 42 47 49 49 51 52 64
41 43 50 62 68 69 71 71 71 83 82 79 86 99 106 103 99 99 110 111 128 128 122 101 83 78 90 91 86 74 62 55 41 39 30 38 46 45 50 50 45 50 55
33 34 46 53 63 68 68 64 68 72 72 69 72 79 93 92 90 87 109 117 120 134 122 109 103 89 91 99 84 73 61 44 41 28 34 38 44 42 40 37 41 42 40
39 39 48 60 65 66 65 65 65 65 60 56 60 69 82 89 87 87 95 107 106 131 133 119 111 108 99 100 75 67 52 35 34 29 34 42 42 35 37 30 31 36 29
42 44 53 62 64 58 58 58 54 51 47 48 50 55 69 87 88 85 71 66 82 114 134 136 135 111 97 107 81 65 49 39 38 43 32 37 36 34 39 38 46 46 30
42 46 52 51 55 53 43 46 43 36 39 44 44 50 60 65 68 69 54 54 60 64 79 147 239 298 57 61 64 40 30 38 37 30 24 33 32 27 33 33 38 42 32
39 46 49 44 44 40 34 22 19 26 32 38 43 49 53 53 53 47 43 55 53 42 34 28 328 321 352 49 30 7 12 20 13 19 23 23 19 13 22 21 20 28 33
35 39 37 31 31 37 29 17 10 19 24 38 48 54 48 52 47 43 39 37 26 8 4 2 335 341 334 221 272 297 322 351 8 350 358 1 -0 353 360 1 358 360 15
27 30 33 28 26 28 33 27 11 15 27 44 56 55 44 39 33 28 25 18 10 0 346 340 341 321 329 279 259 267 300 314 332 323 336 347 351 343 342 344 343 334 330
21 24 29 24 25 31 34 23 15 18 37 48 47 38 27 17 17 21 15 8 3 355 342 325 330 315 315 317 277 284 301 309 303 317 315 327 335 337 333 323 320 323 315
22 27 26 27 31 34 29 19 17 20 37 35 28 20 11 10 10 11 7 351 346 342 340 337 321 322 316 317 305 296 306 319 329 309 303 309 320 325 326 323 309 311 313
22 28 28 30 27 31 28 19 16 16 29 25 13 6 4 2 2 3 357 346 339 330 330 331 325 323 312 292 289 295 305 302 305 308 313 309 312 317 320 317 316 311 312
13 22 29 26 19 19 14 15 14 4 7 6 3 3 0 1 356 351 348 340 331 324 321 317 312 305 296 290 291 290 290 292 287 290 299 304 304 301 308 313 314 313 309
2 8 12 12 7 1 349 347 347 343 345 346 344 342 347 347 344 338 336 335 328 322 315 310 308 299 296 291 291 287 286 288 290 288 291 291 291 294 299 301 302 304 307
356 360 0 357 352 346 338 328 327 330 334 335 335 332 333 334 330 325 325 325 326 320 312 307 302 294 293 290 287 283 279 284 286 287 290 288 288 287 293 298 296 296 299
344 346 344 336 333 331 334 334 317 324 329 329 329 327 324 322 321 318 321 320 321 320 311 304 303 294 292 293 289 284 279 279 283 286 288 287 290 291 289 288 293 296 296
336 330 329 324 321 323 324 326 324 319 321 324 325 322 317 313 311 309 313 313 316 318 312 301 296 294 295 291 288 283 281 280 283 285 290 291 290 291 292 289 287 291 294
328 326 322 320 318 314 314 316 319 318 315 317 319 319 315 309 304 301 302 307 311 315 313 305 301 300 300 297 290 288 288 284 289 286 288 291 289 288 289 291 292 293 292
324 326 321 318 312 313 315 315 315 315 313 312 314 315 314 309 302 298 299 305 308 311 309 303 300 303 305 302 296 294 292 291 290 289 291 292 294 293 293 291 290 291 292
320 323 320 315 308 307 310 309 307 308 308 310 313 313 313 309 305 301 299 301 303 308 308 304 300 301 302 304 304 304 300 296 296 295 296 295 292 293 293 291 292 292 293
313 314 316 313 308 308 309 308 307 306 308 307 310 309 309 311 308 304 300 295 299 304 305 305 304 303 301 302 301 302 302 300 300 301 301 300 297 293 292 292 292 292 292
Height
5883 5883 5883 5882 5882 5882 5882 5882 5882 5882 5882 5883 5884 5885 5886 5886 5887 5888 5889 5889 5889 5890 5891 5891 5891 5892 5892 5892 5893 5893 5893 5893 5893 5894 5893 5893 5894 5894 5894 5894 5894 5894 5894
5885 5884 5884 5884 5884 5884 5883 5884 5884 5883 5883 5884 5885 5886 5887 5888 5889 5889 5890 5890 5891 5891 5892 5892 5893 5893 5893 5893 5893 5893 5894 5894 5894 5894 5894 5894 5894 5894 5894 5894 5894 5894 5894
5886 5886 5886 5885 5885 5885 5885 5885 5885 5884 5884 5885 5887 5887 5888 5889 5890 5890 5891 5891 5892 5892 5893 5893 5893 5894 5894 5894 5894 5894 5894 5895 5895 5895 5895 5895 5895 5895 5894 5894 5894 5894 5895
5887 5887 5887 5887 5887 5887 5887 5887 5887 5886 5886 5887 5888 5889 5889 5890 5890 5891 5892 5892 5893 5893 5894 5894 5894 5894 5894 5894 5894 5895 5895 5895 5895 5896 5896 5895 5895 5895 5895 5895 5895 5895 5895
5889 5889 5889 5889 5889 5889 5889 5889 5889 5889 5889 5889 5889 5890 5891 5891 5891 5892 5893 5893 5894 5894 5895 5895 5895 5895 5895 5895 5895 5895 5896 5896 5896 5896 5896 5896 5896 5895 5895 5895 5895 5895 5896
5891 5891 5890 5890 5890 5890 5890 5890 5890 5891 5891 5891 5891 5891 5892 5892 5892 5893 5893 5894 5894 5895 5895 5895 5896 5896 5896 5896 5896 5896 5896 5896 5896 5896 5896 5896 5896 5896 5896 5896 5896 5896 5896
5892 5892 5891 5891 5892 5892 5892 5892 5892 5892 5892 5892 5892 5892 5892 5893 5893 5893 5894 5894 5895 5895 5896 5896 5896 5896 5896 5896 5896 5896 5897 5897 5897 5897 5897 5897 5897 5896 5896 5896 5896 5897 5897
5893 5893 5892 5893 5893 5893 5893 5893 5893 5893 5893 5893 5893 5893 5894 5894 5894 5894 5895 5895 5896 5896 5896 5896 5896 5896 5897 5897 5897 5897 5897 5897 5897 5897 5897 5896 5897 5897 5897 5897 5897 5897 5897
5894 5894 5893 5893 5894 5894 5894 5894 5894 5894 5894 5894 5894 5894 5894 5895 5895 5895 5896 5896 5896 5896 5897 5897 5897 5897 5897 5897 5897 5897 5897 5897 5897 5897 5897 5897 5897 5897 5897 5897 5897 5897 5897
5895 5895 5895 5895 5895 5895 5895 5895 5895 5895 5895 5895 5895 5895 5895 5896 5896 5896 5896 5896 5896 5897 5897 5897 5897 5897 5897 5897 5898 5898 5898 5898 5897 5898 5897 5897 5897 5898 5898 5897 5897 5898 5898
5896 5896 5896 5896 5896 5896 5896 5896 5896 5896 5896 5896 5896 5896 5896 5896 5897 5897 5897 5897 5897 5897 5897 5898 5898 5898 5898 5898 5898 5898 5898 5898 5898 5898 5898 5898 5898 5898 5898 5898 5898 5898 5898
5897 5897 5897 5897 5897 5897 5897 5897 5897 5897 5897 5897 5897 5897 5897 5897 5897 5897 5897 5897 5897 5897 5898 5898 5898 5898 5898 5898 5898 5899 5899 5899 5898 5898 5898 5898 5898 5898 5898 5898 5898 5898 5898
5899 5898 5898 5898 5898 5898 5898 5898 5898 5898 5898 5897 5897 5898 5898 5898 5898 5898 5898 5898 5898 5897 5898 5898 5898 5898 5898 5898 5898 5899 5899 5898 5897 5897 5898 5898 5898 5898 5898 5898 5898 5898 5898
5900 5900 5899 5899 5899 5898 5898 5899 5899 5899 5898 5898 5898 5898 5899 5899 5899 5899 5898 5898 5898 5898 5898 5898 5898 5898 5897 5897 5898 5898 5898 5898 5898 5897 5898 5898 5898 5898 5898 5898 5898 5898 5898
5901 5900 5900 5900 5900 5900 5900 5900 5900 5899 5899 5899 5899 5899 5899 5899 5899 5899 5898 5898 5898 5898 5898 5898 5898 5897 5897 5897 5897 5898 5898 5898 5898 5898 5898 5898 5898 5898 5898 5897 5897 5897 5897
5901 5901 5901 5901 5900 5900 5900 5900 5900 5900 5900 5900 5900 5900 5899 5899 5899 5899 5899 5898 5898 5898 5898 5897 5897 5897 5897 5897 5897 5897 5898 5898 5897 5897 5897 5898 5898 5897 5897 5897 5896 5896 5896
5902 5902 5902 5902 5901 5901 5901 5901 5901 5901 5900 5900 5900 5900 5900 5899 5899 5899 5899 5898 5898 5898 5897 5897 5897 5897 5897 5897 5896 5897 5897 5897 5897 5897 5897 5897 5897 5896 5896 5896 5895 5895 5895
5903 5903 5902 5902 5902 5902 5902 5902 5902 5901 5901 5901 5901 5900 5900 5899 5899 5899 5899 5898 5898 5897 5897 5897 5896 5896 5896 5896 5896 5896 5896 5896 5896 5896 5896 5896 5895 5895 5895 5894 5894 5894 5893
5904 5903 5903 5903 5903 5903 5902 5902 5902 5902 5901 5901 5901 5900 5899 5899 5899 5898 5898 5897 5897 5896 5896 5896 5895 5895 5895 5895 5895 5895 5895 5895 5895 5894 5894 5894 5894 5894 5893 5893 5892 5892 5892
5904 5904 5903 5903 5903 5903 5903 5903 5902 5902 5901 5901 5900 5900 5899 5899 5898 5898 5897 5897 5896 5895 5895 5894 5894 5894 5893 5893 5893 5893 5893 5893 5893 5893 5893 5892 5891 5891 5891 5891 5891 5890 5890
5904 5904 5903 5903 5903 5903 5903 5902 5902 5901 5901 5901 5900 5899 5899 5898 5898 5897 5896 5896 5895 5894 5893 5893 5893 5892 5892 5892 5892 5892 5892 5891 5891 5891 5890 5890 5889 5889 5889 5889 5889 5888 5888
5904 5904 5904 5903 5903 5903 5902 5902 5901 5901 5900 5900 5899 5899 5898 5897 5897 5896 5895 5894 5894 5893 5892 5891 5891 5890 5890 5890 5890 5889 5889 5889 5887 5888 5888 5887 5887 5887 5886 5886 5886 5885 5885
5904 5903 5903 5903 5902 5902 5901 5901 5901 5900 5900 5899 5898 5898 5897 5896 5895 5894 5894 5893 5892 5891 5890 5889 5889 5888 5888 5887 5887 5887 5886 5886 5886 5885 5885 5885 5884 5883 5883 5883 5882 5882 5881
5903 5902 5902 5902 5901 5901 5900 5900 5900 5899 5898 5898 5897 5896 5895 5894 5893 5892 5891 5891 5890 5889 5888 5887 5887 5886 5886 5885 5885 5883 5883 5882 5882 5882 5882 5881 5881 5880 5879 5879 5878 5878 5877
5902 5901 5901 5900 5900 5899 5899 5899 5898 5898 5897 5896 5895 5894 5893 5892 5891 5890 5889 5888 5888 5887 5886 5886 5885 5884 5883 5883 5882 5881 5880 5879 5879 5879 5879 5878 5878 5877 5876 5875 5873 5873 5873
5900 5900 5900 5899 5897 5897 5897 5897 5896 5896 5895 5894 5893 5893 5891 5890 5889 5888 5887 5886 5886 5885 5884 5883 5883 5882 5881 5880 5880 5879 5878 5877 5877 5876 5875 5875 5874 5873 5872 5871 5870 5869 5868